Date String (YYYY-MM-DD hh:mm:ss) UTC,Instrument flags,Ambient pressure (hPa),Sample flow (lpm),Bypass flow (lpm),Sample temperature (°C),Ambient temperature (°C),ASC tube jacket temperature (°C),LED temperature (°C),Box temperature (°C),Sample RH (%),Span deviation,Mass concentration (μg/m³),Mass concentration (μg/m³),Mass concentration (μg/m³)
DateTimeUTC,F1_M11,P_M11,Q1_M11,Q2_M11,T1_M11,T2_M11,T3_M11,T4_M11,T5_M11,U1_M11,ZSPAN_M11,X0_M11,X2_M11,X1_M11
2021-11-17 06:00:00,,0822.2,5.01,0.00,27.8,27.0,00.0,36.8,29.6,13.7,0000.0,0014.36,0002.86,0000.72
2021-11-17 06:01:00,,0822.3,5.00,0.00,27.8,27.1,00.0,36.8,29.6,13.7,0000.0,0015.22,0002.95,0000.73
2021-11-17 06:02:00,,0822.3,5.00,0.00,27.8,27.1,00.0,36.8,29.6,13.7,0000.0,0015.95,0003.00,0000.75
2021-11-17 06:03:00,,0822.3,5.00,0.00,27.8,27.1,00.0,36.8,29.6,13.7,0000.0,0015.46,0003.04,0000.76
2021-11-17 06:04:00,,0822.3,5.00,0.00,27.8,27.1,00.0,36.8,29.6,13.7,0000.0,0014.97,0003.05,0000.77
2021-11-17 06:05:00,,0822.3,5.01,0.00,27.8,27.1,00.0,36.8,29.6,13.7,0000.0,0015.21,0003.05,0000.77
2021-11-17 06:06:00,,0822.4,5.00,0.00,27.8,27.1,00.0,36.8,29.6,13.7,0000.0,0015.14,0003.09,0000.76
2021-11-17 06:07:00,,0822.4,5.00,0.00,27.8,27.1,00.0,36.8,29.6,13.6,0000.0,0013.81,0003.07,0000.75
2021-11-17 06:08:00,,0822.6,4.99,0.00,27.8,27.1,00.0,36.8,29.7,13.6,0000.0,0012.95,0003.05,0000.74
2021-11-17 06:09:00,,0822.6,4.99,0.00,27.8,27.2,00.0,36.9,29.7,13.6,0000.0,0013.42,0003.07,0000.74
2021-11-17 06:10:00,,0822.6,5.01,0.00,27.9,27.2,00.0,36.9,29.7,13.6,0000.0,0013.67,0003.10,0000.74
2021-11-17 06:11:00,,0822.6,5.00,0.00,27.9,27.2,00.0,36.9,29.7,13.6,0000.0,0014.11,0003.08,0000.74
2021-11-17 06:12:00,,0822.6,5.00,0.00,27.9,27.2,00.0,36.9,29.7,13.6,0000.0,0013.62,0003.07,0000.74
2021-11-17 06:13:00,,0822.7,5.00,0.00,27.9,27.2,00.0,36.9,29.7,13.6,0000.0,0013.30,0002.98,0000.72
2021-11-17 06:14:00,,0822.7,5.01,0.00,27.9,27.3,00.0,36.9,29.7,13.5,0000.0,0013.36,0002.93,0000.72
2021-11-17 06:15:00,,0822.7,5.00,0.00,28.0,27.3,00.0,36.9,29.8,13.4,0000.0,0013.29,0002.90,0000.72
2021-11-17 06:16:00,,0822.9,5.00,0.00,28.0,27.3,00.0,36.9,29.8,13.5,0000.0,0013.30,0002.91,0000.72
2021-11-17 06:17:00,,0822.9,5.00,0.00,28.0,27.3,00.0,36.9,29.8,13.3,0000.0,0013.06,0002.93,0000.72
2021-11-17 06:18:00,,0823.1,5.01,0.00,28.0,27.3,00.0,36.9,29.8,13.3,0000.0,0013.26,0003.01,0000.72
2021-11-17 06:19:00,,0823.3,5.00,0.00,28.0,27.3,00.0,36.9,29.8,13.0,0000.0,0013.91,0003.05,0000.72
2021-11-17 06:20:00,,0823.4,4.99,0.00,28.0,27.2,00.0,36.9,29.8,13.2,0000.0,0013.28,0003.03,0000.73
2021-11-17 06:21:00,,0823.6,5.02,0.00,28.0,27.2,00.0,37.0,29.7,13.3,0000.0,0012.64,0003.02,0000.73
2021-11-17 06:22:00,,0823.7,5.00,0.00,27.9,27.2,00.0,36.9,29.6,11.7,0000.0,0012.25,0003.12,0000.74
2021-11-17 06:23:00,,0823.7,5.00,0.00,27.9,27.1,00.0,36.9,29.5,10.7,0000.0,0012.88,0003.24,0000.77
2021-11-17 06:24:00,,0823.7,4.99,0.00,27.8,26.9,00.0,36.9,29.4,10.2,0000.0,0013.02,0003.39,0000.82
2021-11-17 06:25:00,,0823.8,5.00,0.00,27.7,26.7,00.0,36.9,29.3,10.0,0000.0,0013.30,0003.41,0000.84
2021-11-17 06:26:00,,0823.8,4.99,0.00,27.6,26.6,00.0,36.9,29.2,10.1,0000.0,0014.20,0003.55,0000.87
2021-11-17 06:27:00,,0824.1,4.99,0.00,27.6,26.4,00.0,36.8,29.1,10.0,0000.0,0014.87,0003.65,0000.91
2021-11-17 06:28:00,,0824.1,5.01,0.00,27.5,26.3,00.0,36.8,29.0,09.8,0000.0,0016.46,0003.78,0000.95
2021-11-17 06:29:00,,0824.1,5.00,0.00,27.4,26.1,00.0,36.8,28.9,09.7,0000.0,0017.84,0003.84,0000.98
2021-11-17 06:30:00,,0824.1,5.00,0.00,27.3,26.0,00.0,36.7,28.8,09.7,0000.0,0018.70,0003.90,0001.01
2021-11-17 06:31:00,,0824.2,5.00,0.00,27.2,25.9,00.0,36.7,28.8,09.6,0000.0,0019.67,0003.97,0001.02
2021-11-17 06:32:00,,0824.2,5.00,0.00,27.2,25.9,00.0,36.6,28.7,09.6,0000.0,0020.37,0004.02,0001.05
2021-11-17 06:33:00,,0824.2,5.00,0.00,27.1,25.8,00.0,36.6,28.6,09.6,0000.0,0020.76,0004.10,0001.08
2021-11-17 06:34:00,,0824.3,5.00,0.00,27.0,25.7,00.0,36.5,28.6,09.6,0000.0,0019.69,0004.02,0001.08
2021-11-17 06:35:00,,0824.3,5.01,0.00,27.0,25.7,00.0,36.4,28.5,09.7,0000.0,0020.19,0004.02,0001.07
2021-11-17 06:36:00,,0824.4,4.99,0.00,26.9,25.7,00.0,36.4,28.4,09.6,0000.0,0020.59,0004.05,0001.07
2021-11-17 06:37:00,,0824.4,5.00,0.00,26.8,25.6,00.0,36.3,28.4,09.4,0000.0,0020.62,0004.02,0001.06
2021-11-17 06:38:00,,0824.4,5.00,0.00,26.8,25.5,00.0,36.3,28.4,09.4,0000.0,0021.00,0004.06,0001.05
2021-11-17 06:39:00,,0824.6,5.00,0.00,26.7,25.5,00.0,36.2,28.3,09.3,0000.0,0020.17,0004.05,0001.05
2021-11-17 06:40:00,,0824.8,5.01,0.00,26.7,25.4,00.0,36.2,28.2,09.3,0000.0,0019.70,0004.03,0001.04
2021-11-17 06:41:00,,0824.6,5.00,0.00,26.6,25.4,00.0,36.1,28.2,09.1,0000.0,0018.64,0004.00,0001.03
2021-11-17 06:42:00,,0824.8,5.00,0.00,26.6,25.3,00.0,36.1,28.1,09.0,0000.0,0018.40,0004.01,0001.04
2021-11-17 06:43:00,,0824.9,5.01,0.00,26.5,25.2,00.0,36.0,28.0,08.9,0000.0,0018.39,0004.08,0001.03
2021-11-17 06:44:00,,0825.0,5.00,0.00,26.4,25.0,00.0,36.0,27.9,08.9,0000.0,0017.95,0004.10,0001.02
2021-11-17 06:45:00,,0825.2,4.98,0.00,26.4,25.0,00.0,35.9,27.9,08.9,0000.0,0019.87,0004.22,0001.02
2021-11-17 06:46:00,,0825.2,5.01,0.00,26.3,25.0,00.0,35.8,27.8,08.9,0000.0,0021.11,0004.28,0001.03
2021-11-17 06:47:00,,0825.3,5.01,0.00,26.2,24.9,00.0,35.8,27.8,08.9,0000.0,0020.22,0004.29,0001.03
2021-11-17 06:48:00,,0825.4,5.00,0.00,26.2,24.9,00.0,35.7,27.8,08.7,0000.0,0019.89,0004.34,0001.04
2021-11-17 06:49:00,,0825.4,5.00,0.00,26.2,24.9,00.0,35.7,27.8,08.7,0000.0,0019.77,0004.38,0001.08
2021-11-17 06:50:00,,0825.4,5.01,0.00,26.1,24.9,00.0,35.6,27.7,08.7,0000.0,0020.15,0004.45,0001.08
2021-11-17 06:51:00,,0825.3,5.01,0.00,26.1,24.8,00.0,35.6,27.7,08.6,0000.0,0020.41,0004.59,0001.11
2021-11-17 06:52:00,,0825.3,4.99,0.00,26.1,24.9,00.0,35.5,27.7,08.5,0000.0,0021.08,0004.75,0001.14
2021-11-17 06:53:00,,0825.4,5.00,0.00,26.1,24.9,00.0,35.5,27.7,08.4,0000.0,0022.93,0004.85,0001.15
2021-11-17 06:54:00,,0825.4,4.99,0.00,26.1,24.9,00.0,35.5,27.7,08.5,0000.0,0024.91,0004.86,0001.16
2021-11-17 06:55:00,,0825.4,5.01,0.00,26.1,24.9,00.0,35.4,27.7,08.5,0000.0,0025.99,0004.83,0001.18
2021-11-17 06:56:00,,0825.5,4.99,0.00,26.0,24.9,00.0,35.4,27.7,08.5,0000.0,0027.66,0004.96,0001.19
2021-11-17 06:57:00,,0825.5,4.99,0.00,26.0,24.9,00.0,35.4,27.7,08.4,0000.0,0027.11,0005.01,0001.19
2021-11-17 06:58:00,,0825.5,5.01,0.00,26.0,24.9,00.0,35.4,27.7,08.1,0000.0,0027.60,0005.16,0001.21
2021-11-17 06:59:00,,0825.6,5.00,0.00,26.0,24.9,00.0,35.3,27.6,08.0,0000.0,0028.26,0005.32,0001.25
